GW6650 Weather Reports


time (UTC)temp
C
wind
direction
speed
KPH
gust
KPH
rain 1hr
cm
rain 24hr
cm
rain mn
cm
humidity
%
barometer
mb
20260507055317 21 175 0.0 3.2 0.00 0.00 0.00 78 1015.4
20260507054814 21 100 0.0 3.2 0.00 0.00 0.00 78 1015.4
20260507054310 21 66 0.0 0.0 0.00 0.00 0.00 78 1015.4
20260507053808 21 142 0.0 3.2 0.00 0.00 0.00 78 1015.6
20260507053306 21 246 0.0 3.2 0.00 0.00 0.00 78 1015.6
20260507052805 21 205 3.2 3.2 0.00 0.00 0.00 78 1015.5
20260507052300 21 103 0.0 3.2 0.00 0.00 0.00 79 1015.8
20260507051759 21 145 0.0 3.2 0.00 0.00 0.00 79 1015.6
20260507051255 20 154 0.0 1.6 0.00 0.00 0.00 80 1015.8
20260507050752 20 309 0.0 0.0 0.00 0.00 0.00 81 1015.7
20260507050249 20 124 0.0 0.0 0.00 0.00 0.00 80 1015.5
20260507045745 20 189 0.0 0.0 0.00 0.00 0.00 81 1015.5
20260507045241 20 127 0.0 0.0 0.00 0.00 0.00 81 1015.8
20260507044739 20 157 0.0 1.6 0.00 0.00 0.00 81 1015.7
20260507044236 20 217 0.0 0.0 0.00 0.00 0.00 81 1015.6
20260507043732 20 142 0.0 0.0 0.00 0.00 0.00 81 1015.9
20260507043229 20 38 0.0 0.0 0.00 0.00 0.00 81 1015.9
20260507042725 20 38 0.0 0.0 0.00 0.00 0.00 80 1016.1
20260507042220 20 38 0.0 0.0 0.00 0.00 0.00 79 1015.9
20260507041718 21 37 0.0 0.0 0.00 0.00 0.00 79 1015.7
20260507041214 21 66 0.0 0.0 0.00 0.00 0.00 79 1015.8
20260507040711 21 62 0.0 0.0 0.00 0.00 0.00 78 1015.8
20260507040207 21 144 1.6 1.6 0.00 0.00 0.00 79 1015.8
20260507035703 21 173 0.0 0.0 0.00 0.00 0.00 79 1015.9
20260507035159 21 141 0.0 1.6 0.00 0.00 0.00 78 1015.9
20260507034656 21 197 0.0 0.0 0.00 0.00 0.00 78 1015.9
20260507034154 21 118 0.0 0.0 0.00 0.00 0.00 79 1015.9
20260507033652 21 76 0.0 0.0 0.00 0.00 0.00 79 1016.0
20260507033149 21 62 0.0 0.0 0.00 0.00 0.00 79 1015.8
20260507032646 21 129 0.0 1.6 0.00 0.00 0.00 79 1015.9
20260507032142 21 124 0.0 3.2 0.00 0.00 0.00 79 1015.8
20260507031639 21 98 0.0 0.0 0.00 0.00 0.00 77 1016.2
20260507031135 21 117 0.0 0.0 0.00 0.00 0.00 76 1016.1
20260507030632 21 117 0.0 0.0 0.00 0.00 0.00 76 1015.7
20260507030130 21 129 0.0 1.6 0.00 0.00 0.00 75 1015.6
20260507025627 21 84 0.0 0.0 0.00 0.00 0.00 75 1015.8
20260507025124 22 66 0.0 1.6 0.00 0.00 0.00 75 1015.6
20260507024622 21 164 0.0 0.0 0.00 0.00 0.00 74 1015.7
20260507024119 22 124 0.0 0.0 0.00 0.00 0.00 74 1015.6
20260507023614 22 128 0.0 1.6 0.00 0.00 0.00 74 1015.5
20260507023112 22 141 0.0 0.0 0.00 0.00 0.00 73 1015.7
20260507022609 22 142 0.0 0.0 0.00 0.00 0.00 73 1015.8
20260507022104 22 142 0.0 0.0 0.00 0.00 0.00 72 1015.7
20260507021601 22 142 0.0 0.0 0.00 0.00 0.00 72 1015.6
20260507021057 22 164 0.0 0.0 0.00 0.00 0.00 72 1015.7
20260507020555 22 164 0.0 0.0 0.00 0.00 0.00 71 1015.8
20260507020051 22 157 0.0 0.0 0.00 0.00 0.00 71 1015.5
20260507015550 23 147 0.0 0.0 0.00 0.00 0.00 70 1015.4
20260507015047 23 170 0.0 0.0 0.00 0.00 0.00 69 1015.6
20260507014543 23 142 0.0 0.0 0.00 0.00 0.00 69 1015.6
20260507014038 23 160 0.0 1.6 0.00 0.00 0.00 69 1015.5
20260507013536 23 66 0.0 1.6 0.00 0.00 0.00 68 1015.7
20260507013033 23 55 0.0 0.0 0.00 0.00 0.00 66 1015.6
20260507012530 24 55 0.0 0.0 0.00 0.00 0.00 65 1015.6
20260507012026 24 357 0.0 0.0 0.00 0.00 0.00 65 1015.6
20260507011524 24 241 1.6 3.2 0.00 0.00 0.00 64 1015.6
20260507011020 25 249 0.0 3.2 0.00 0.00 0.00 64 1015.7
20260507010514 25 255 0.0 3.2 0.00 0.00 0.00 63 1015.8
20260507010011 25 233 1.6 4.8 0.00 0.00 0.00 63 1015.7
20260507005509 25 230 0.0 3.2 0.00 0.00 0.00 62 1015.2
20260507005005 25 129 1.6 3.2 0.00 0.00 0.00 62 1015.3
20260507004502 25 92 3.2 8.0 0.00 0.00 0.00 62 1015.2
20260507003959 25 274 1.6 4.8 0.00 0.00 0.00 62 1015.0
20260507003454 25 207 1.6 6.4 0.00 0.00 0.00 62 1014.8
20260507002949 25 130 0.0 8.0 0.00 0.00 0.00 61 1014.8
20260507002447 25 129 8.0 8.0 0.00 0.00 0.00 61 1014.7
20260507001943 25 71 4.8 8.0 0.00 0.00 0.00 61 1014.5
20260507001440 26 88 4.8 6.4 0.00 0.00 0.00 61 1014.5
20260507000937 26 166 4.8 8.0 0.00 0.00 0.00 61 1014.5
20260507000435 26 101 4.8 6.4 0.00 0.00 0.00 60 1014.5
20260506235928 26 145 0.0 6.4 0.00 0.00 0.00 61 1014.7
20260506235426 26 284 0.0 6.4 0.00 0.00 0.00 60 1014.6
20260506234921 26 126 3.2 9.7 0.00 0.00 0.00 60 1014.3
20260506234420 27 87 3.2 4.8 0.00 0.00 0.00 60 1014.3
20260506233917 27 140 4.8 8.0 0.00 0.00 0.00 60 1014.2
20260506233413 27 146 6.4 6.4 0.00 0.00 0.00 60 1014.4
20260506232910 27 135 6.4 6.4 0.00 0.00 0.00 60 1014.3
20260506232406 27 92 6.4 6.4 0.00 0.00 0.00 60 1014.1
20260506231902 28 142 1.6 12.9 0.00 0.00 0.00 60 1014.4
20260506231400 28 130 3.2 6.4 0.00 0.00 0.00 59 1014.4
20260506230857 28 59 4.8 8.0 0.00 0.00 0.00 59 1014.4
20260506230353 28 70 4.8 6.4 0.00 0.00 0.00 59 1014.2
20260506225849 28 122 6.4 11.3 0.00 0.00 0.00 59 1014.7
20260506225347 29 56 4.8 9.7 0.00 0.00 0.00 58 1014.4
20260506224844 29 73 9.7 14.5 0.00 0.00 0.00 58 1014.7
20260506224342 29 89 4.8 9.7 0.00 0.00 0.00 58 1014.6
20260506223838 30 120 1.6 6.4 0.00 0.00 0.00 57 1014.4
20260506223333 29 252 3.2 6.4 0.00 0.00 0.00 58 1014.1
20260506222830 29 71 6.4 6.4 0.00 0.00 0.00 58 1014.3
20260506222326 29 81 4.8 9.7 0.00 0.00 0.00 59 1014.3
20260506221824 29 119 3.2 14.5 0.00 0.00 0.00 59 1014.2
20260506221321 29 100 3.2 9.7 0.00 0.00 0.00 59 1014.4
20260506220819 30 77 3.2 14.5 0.00 0.00 0.00 59 1014.4
20260506220319 30 60 4.8 9.7 0.00 0.00 0.00 57 1014.5
20260506215816 30 170 0.0 11.3 0.00 0.00 0.00 58 1014.4
20260506215312 30 249 0.0 8.0 0.00 0.00 0.00 60 1014.3
20260506214808 30 103 1.6 8.0 0.00 0.00 0.00 61 1014.4
20260506214305 30 66 3.2 8.0 0.00 0.00 0.00 59 1014.3
20260506213804 30 159 6.4 9.7 0.00 0.00 0.00 57 1014.3
20260506213300 30 73 4.8 11.3 0.00 0.00 0.00 57 1014.4
20260506212758 30 100 8.0 9.7 0.00 0.00 0.00 57 1014.5
20260506212253 30 101 3.2 11.3 0.00 0.00 0.00 58 1014.5
20260506211748 31 94 8.0 14.5 0.00 0.00 0.00 57 1014.5
20260506211245 31 82 4.8 9.7 0.00 0.00 0.00 56 1014.6
20260506210742 30 110 8.0 14.5 0.00 0.00 0.00 57 1014.5
20260506210239 31 136 3.2 14.5 0.00 0.00 0.00 57 1014.6
20260506205736 31 83 4.8 8.0 0.00 0.00 0.00 54 1014.4
20260506205232 31 100 4.8 8.0 0.00 0.00 0.00 55 1014.5
20260506204729 30 85 8.0 12.9 0.00 0.00 0.00 58 1014.6
20260506204226 31 46 4.8 17.7 0.00 0.00 0.00 54 1014.5
20260506203724 32 96 4.8 12.9 0.00 0.00 0.00 53 1014.6
20260506203221 32 76 12.9 14.5 0.00 0.00 0.00 52 1014.7
20260506202719 33 333 1.6 9.7 0.00 0.00 0.00 41 1014.7
20260506202215 32 257 3.2 11.3 0.00 0.00 0.00 46 1014.9
20260506201712 32 268 3.2 11.3 0.00 0.00 0.00 44 1014.8
20260506201209 33 84 4.8 6.4 0.00 0.00 0.00 42 1014.9
20260506200705 33 239 4.8 8.0 0.00 0.00 0.00 42 1015.0
20260506200202 33 256 6.4 9.7 0.00 0.00 0.00 42 1015.2
20260506195658 33 159 4.8 6.4 0.00 0.00 0.00 44 1014.9
20260506195155 33 165 3.2 8.0 0.00 0.00 0.00 43 1015.2
20260506194653 33 142 3.2 8.0 0.00 0.00 0.00 43 1015.0
20260506194148 33 223 4.8 4.8 0.00 0.00 0.00 44 1015.2
20260506193646 32 156 3.2 8.0 0.00 0.00 0.00 46 1015.5
20260506193143 33 140 3.2 3.2 0.00 0.00 0.00 44 1015.3
20260506192640 32 190 3.2 6.4 0.00 0.00 0.00 44 1015.5
20260506192136 32 155 0.0 4.8 0.00 0.00 0.00 45 1015.5
20260506191633 32 256 3.2 14.5 0.00 0.00 0.00 46 1015.7
20260506191129 33 246 3.2 11.3 0.00 0.00 0.00 44 1015.7
20260506190627 32 173 4.8 8.0 0.00 0.00 0.00 45 1015.8
20260506190123 32 235 4.8 8.0 0.00 0.00 0.00 46 1015.7
20260506185621 32 249 6.4 9.7 0.00 0.00 0.00 46 1015.7
20260506185116 32 65 4.8 6.4 0.00 0.00 0.00 46 1015.9
20260506184614 32 261 4.8 8.0 0.00 0.00 0.00 47 1015.8
20260506184111 32 238 3.2 11.3 0.00 0.00 0.00 46 1016.0
20260506183608 32 135 0.0 6.4 0.00 0.00 0.00 45 1016.2
20260506183104 32 160 6.4 9.7 0.00 0.00 0.00 47 1015.9
20260506182602 31 242 8.0 9.7 0.00 0.00 0.00 47 1016.3
20260506182058 32 159 1.6 6.4 0.00 0.00 0.00 45 1016.2
20260506181556 31 177 1.6 11.3 0.00 0.00 0.00 48 1016.3
20260506181053 31 314 3.2 6.4 0.00 0.00 0.00 48 1016.2
20260506180549 31 260 3.2 9.7 0.00 0.00 0.00 47 1016.4
20260506180046 31 283 1.6 4.8 0.00 0.00 0.00 49 1016.5
20260506175542 31 216 6.4 9.7 0.00 0.00 0.00 49 1016.5
20260506175039 31 289 3.2 6.4 0.00 0.00 0.00 49 1016.6
20260506174538 31 233 4.8 9.7 0.00 0.00 0.00 50 1016.5
20260506174033 31 224 3.2 8.0 0.00 0.00 0.00 49 1016.6
20260506173531 31 255 4.8 4.8 0.00 0.00 0.00 51 1016.8
20260506173028 31 214 3.2 8.0 0.00 0.00 0.00 48 1016.8
20260506172526 31 77 1.6 6.4 0.00 0.00 0.00 48 1016.9
20260506172021 31 248 0.0 8.0 0.00 0.00 0.00 51 1017.0
20260506171519 30 226 0.0 9.7 0.00 0.00 0.00 50 1017.0
20260506171017 30 30 0.0 8.0 0.00 0.00 0.00 51 1017.0
20260506170514 30 268 1.6 9.7 0.00 0.00 0.00 52 1017.0
20260506170012 30 209 6.4 6.4 0.00 0.00 0.00 52 1017.1
20260506165510 30 212 3.2 11.3 0.00 0.00 0.00 52 1017.0
20260506165006 30 156 8.0 9.7 0.00 0.00 0.00 50 1017.2
20260506164502 30 252 6.4 9.7 0.00 0.00 0.00 53 1017.3
20260506164000 30 233 3.2 9.7 0.00 0.00 0.00 52 1017.6
20260506163455 29 295 1.6 11.3 0.00 0.00 0.00 53 1017.3
20260506162950 30 230 6.4 11.3 0.00 0.00 0.00 55 1017.4
20260506162448 30 178 4.8 9.7 0.00 0.00 0.00 52 1017.4
20260506161945 30 276 3.2 9.7 0.00 0.00 0.00 53 1017.5
20260506161443 29 150 3.2 9.7 0.00 0.00 0.00 53 1017.6
20260506160940 30 250 17.7 17.7 0.00 0.00 0.00 52 1017.4
20260506160438 30 138 4.8 6.4 0.00 0.00 0.00 53 1017.5
20260506155935 30 235 4.8 12.9 0.00 0.00 0.00 54 1017.8
20260506155433 29 135 4.8 9.7 0.00 0.00 0.00 54 1017.3
20260506153554 28 237 6.4 9.7 0.00 0.00 0.00 53 1017.9
20260506153051 29 203 3.2 8.0 0.00 0.00 0.00 54 1017.7
20260506152548 28 261 8.0 8.0 0.00 0.00 0.00 55 1017.7
20260506152046 28 258 11.3 11.3 0.00 0.00 0.00 56 1017.7
20260506151544 28 249 3.2 9.7 0.00 0.00 0.00 58 1017.7
20260506151041 28 178 3.2 6.4 0.00 0.00 0.00 59 1017.6
20260506150537 27 180 1.6 8.0 0.00 0.00 0.00 62 1017.7
20260506150034 28 258 4.8 8.0 0.00 0.00 0.00 61 1017.5
20260506145531 27 216 3.2 6.4 0.00 0.00 0.00 63 1017.5
20260506145028 28 213 3.2 9.7 0.00 0.00 0.00 61 1017.6
20260506144525 28 220 4.8 8.0 0.00 0.00 0.00 61 1017.4
20260506144022 27 222 3.2 4.8 0.00 0.00 0.00 64 1017.3
20260506143520 27 188 1.6 8.0 0.00 0.00 0.00 62 1017.4
20260506143018 27 218 1.6 8.0 0.00 0.00 0.00 63 1017.4
20260506142515 27 187 0.0 12.9 0.00 0.00 0.00 65 1017.4
20260506142014 27 180 1.6 6.4 0.00 0.00 0.00 65 1017.5
20260506141511 26 224 3.2 4.8 0.00 0.00 0.00 68 1017.6
20260506141009 26 234 1.6 6.4 0.00 0.00 0.00 69 1017.3
20260506140506 26 212 4.8 6.4 0.00 0.00 0.00 68 1017.4
20260506140004 26 225 4.8 9.7 0.00 0.00 0.00 68 1017.5
20260506135500 25 224 3.2 6.4 0.00 0.00 0.00 70 1017.4
20260506134956 26 211 6.4 16.1 0.00 0.00 0.00 68 1017.6
20260506134452 26 69 1.6 4.8 0.00 0.00 0.00 69 1017.6
20260506133949 25 227 1.6 8.0 0.00 0.00 0.00 70 1017.4
20260506133446 25 224 6.4 9.7 0.00 0.00 0.00 68 1017.6
20260506132943 25 228 4.8 8.0 0.00 0.00 0.00 70 1017.6
20260506132440 25 237 6.4 8.0 0.00 0.00 0.00 69 1017.4
20260506131937 25 89 0.0 9.7 0.00 0.00 0.00 69 1017.2
20260506131434 25 212 3.2 6.4 0.00 0.00 0.00 70 1017.3
20260506130931 25 242 0.0 4.8 0.00 0.00 0.00 71 1017.2
20260506130427 24 213 1.6 6.4 0.00 0.00 0.00 72 1017.1
20260506125925 24 193 1.6 6.4 0.00 0.00 0.00 72 1017.3
20260506125423 23 219 0.0 1.6 0.00 0.00 0.00 74 1017.2
20260506124921 23 221 1.6 6.4 0.00 0.00 0.00 74 1017.0
20260506124419 23 77 0.0 3.2 0.00 0.00 0.00 74 1017.2
20260506123916 23 207 3.2 3.2 0.00 0.00 0.00 75 1017.1
20260506123414 22 212 0.0 4.8 0.00 0.00 0.00 78 1017.1
20260506122911 22 297 0.0 1.6 0.00 0.00 0.00 82 1017.1
20260506122408 20 135 0.0 3.2 0.00 0.00 0.00 83 1016.9
20260506121907 20 147 3.2 3.2 0.00 0.00 0.00 85 1017.0
20260506121403 20 89 0.0 1.6 0.00 0.00 0.00 89 1016.9
20260506120900 18 129 0.0 0.0 0.00 0.00 0.00 91 1016.8
20260506120357 18 124 0.0 1.6 0.00 0.00 0.00 92 1017.0
20260506115855 17 76 0.0 0.0 0.00 0.00 0.00 93 1016.9
20260506115353 17 124 0.0 1.6 0.00 0.00 0.00 93 1016.7
20260506114851 17 119 0.0 1.6 0.00 0.00 0.00 94 1016.7
20260506114348 16 115 1.6 1.6 0.00 0.00 0.00 94 1016.8
20260506113847 16 159 0.0 0.0 0.00 0.00 0.00 94 1016.5
20260506113344 15 142 0.0 1.6 0.00 0.00 0.00 94 1016.6
20260506112840 15 135 0.0 1.6 0.00 0.00 0.00 95 1016.7
20260506112337 15 135 0.0 1.6 0.00 0.00 0.00 95 1016.6
20260506111835 15 142 0.0 0.0 0.00 0.00 0.00 95 1016.5
20260506111333 15 176 0.0 3.2 0.00 0.00 0.00 95 1016.6
20260506110830 14 25 0.0 0.0 0.00 0.00 0.00 95 1016.5
20260506110327 14 142 0.0 1.6 0.00 0.00 0.00 95 1016.5
20260506105824 14 142 0.0 3.2 0.00 0.00 0.00 95 1016.4
20260506105320 14 151 0.0 3.2 0.00 0.00 0.00 95 1016.4
20260506104818 14 136 3.2 3.2 0.00 0.00 0.00 95 1016.2
20260506104316 14 154 0.0 3.2 0.00 0.00 0.00 95 1016.2
20260506103813 14 147 0.0 3.2 0.00 0.00 0.00 95 1015.9
20260506103310 14 119 1.6 3.2 0.00 0.00 0.00 95 1016.1
20260506102808 14 129 0.0 3.2 0.00 0.00 0.00 95 1016.2
20260506102306 14 142 1.6 3.2 0.00 0.00 0.00 95 1016.2
20260506101803 14 125 0.0 3.2 0.00 0.00 0.00 95 1016.1
20260506101258 14 129 0.0 1.6 0.00 0.00 0.00 95 1016.4
20260506100757 14 103 0.0 0.0 0.00 0.00 0.00 95 1016.2
20260506100254 14 115 0.0 1.6 0.00 0.00 0.00 95 1016.2
20260506095753 14 142 0.0 1.6 0.00 0.00 0.00 95 1016.1
20260506095249 14 145 0.0 0.0 0.00 0.00 0.00 95 1016.2
20260506094746 14 50 0.0 0.0 0.00 0.00 0.00 94 1016.1
20260506094244 14 148 0.0 3.2 0.00 0.00 0.00 95 1016.0
20260506093743 14 113 0.0 0.0 0.00 0.00 0.00 94 1016.0
20260506093239 14 150 0.0 1.6 0.00 0.00 0.00 94 1016.1
20260506092737 14 163 0.0 1.6 0.00 0.00 0.00 94 1015.9
20260506092235 14 92 0.0 3.2 0.00 0.00 0.00 94 1015.8
20260506091732 14 108 1.6 3.2 0.00 0.00 0.00 94 1015.8
20260506091229 13 129 0.0 0.0 0.00 0.00 0.00 94 1015.9
20260506090727 13 140 1.6 1.6 0.00 0.00 0.00 94 1015.8
20260506090224 14 142 0.0 0.0 0.00 0.00 0.00 94 1016.0
20260506085721 14 157 0.0 0.0 0.00 0.00 0.00 94 1015.9
20260506085217 14 129 0.0 1.6 0.00 0.00 0.00 94 1015.8
20260506084714 14 134 1.6 3.2 0.00 0.00 0.00 94 1015.4
20260506084210 14 132 0.0 3.2 0.00 0.00 0.00 94 1015.7
20260506083707 14 124 0.0 3.2 0.00 0.00 0.00 94 1015.9
20260506083205 14 120 1.6 1.6 0.00 0.00 0.00 94 1015.9
20260506082702 14 133 1.6 3.2 0.00 0.00 0.00 94 1016.0
20260506082202 14 50 0.0 1.6 0.00 0.00 0.00 93 1015.9
20260506081700 14 137 1.6 3.2 0.00 0.00 0.00 93 1015.8
20260506081158 14 139 0.0 3.2 0.00 0.00 0.00 93 1015.7
20260506080655 14 145 0.0 0.0 0.00 0.00 0.00 93 1015.9
20260506080152 14 125 1.6 3.2 0.00 0.00 0.00 93 1015.7
20260506073136 14 122 0.0 3.2 0.00 0.00 0.00 93 1015.7
20260506072632 14 115 1.6 3.2 0.00 0.00 0.00 93 1016.1
20260506072130 14 117 0.0 1.6 0.00 0.00 0.00 92 1015.8
20260506071628 14 130 0.0 1.6 0.00 0.00 0.00 92 1016.0
20260506071125 14 157 0.0 1.6 0.00 0.00 0.00 92 1015.9
20260506070622 14 151 0.0 1.6 0.00 0.00 0.00 92 1016.1
20260506070119 14 109 1.6 1.6 0.00 0.00 0.00 92 1015.8
20260506062056 14 142 0.0 0.0 0.00 0.00 0.00 91 1016.3
20260506061552 14 142 0.0 0.0 0.00 0.00 0.00 91 1016.5
20260506061050 14 148 0.0 1.6 0.00 0.00 0.00 91 1016.3
20260506060548 14 109 0.0 3.2 0.00 0.00 0.00 91 1016.4